{"data":{"norad_id":59193,"intl_designator":"2024-045R","name":"STARLINK-31548","alt_names":[],"object_type":"PAYLOAD","status":"ACTIVE","operator":null,"country":"US","launch_date":"2024-03-10","launch_site_code":"AFETR","launch_vehicle":null,"mission":null,"orbit_class":"UNKNOWN","rcs_meters":null,"size_class":null,"mass_kg":null,"dimensions":null,"purposes":["comms"],"wikipedia_slug":null,"has_3d_model":false,"image_url":null,"decayed_at":null,"tle_current":{"epoch":"2026-05-25T00:55:45.502176Z","epoch_age_seconds":82239,"freshness":"FRESH","line1":"1 59193U 24045R   26145.03872109  .00000800  00000+0  38582-4 0  9997","line2":"2 59193  43.0037  21.7369 0000753 288.0617  72.0152 15.27573724124839","mean_motion":15.27573724,"eccentricity":7.53e-5,"inclination_deg":43.0037,"raan_deg":21.7369,"arg_perigee_deg":288.0617,"mean_anomaly_deg":72.0152,"bstar":3.8582e-5,"rev_number":12483,"period_min":94.267136006327,"perigee_km":482.55123997765,"apogee_km":483.58453743389,"semimajor_km":6861.2048887058,"source":"CELESTRAK","updated_at":"2026-05-25T13:38:18.861972Z"}}}